Regional Weather Roundup
Issued by NWS Bismarck, ND

Home | Current Version | Previous Version | Text Only | Print | Product List | Glossary On
Versions: 1 2 3 4 5 6 7 8 9 10 11 12 13 14 15 16 17 18 19 20 21 22 23 24 25 26 27 28 29 30 31 32 33 34 35 36 37 38 39 40 41 42 43 44 45 46 47 48 49 50
000
ASUS43 KBIS 051810
RWRBIS

NWR BROADCAST TEXT
NATIONAL WEATHER SERVICE BISMARCK ND
100 PM CDT SUN JUL 05 2015

NOTE: "FAIR" INDICATES FEW OR NO CLOUDS BELOW 12,000 FEET WITH NO
SIGNIFICANT WEATHER AND/OR OBSTRUCTIONS TO VISIBILITY.


CITY           SKY/WX    TMP DP  RH WIND       PRES   REMARKS
WILLISTON      CLOUDY    74  52  46 N18       29.95S HAZE
MINOT          MOSUNNY   73  62  68 NW13G23   29.86R HAZE
MINOT AFB      MOSUNNY   76  69  80 NW18      29.85R
BISMARCK       PTSUNNY   73  64  73 N6        29.83R
DICKINSON      PTSUNNY   71  60  68 N16G28    29.90R
GARRISON         N/A     73  61  65 N13       29.88R
HETTINGER ARPT CLOUDY    77  62  59 N12       29.86R
JAMESTOWN      CLOUDY    70  64  81 NE5       29.78F
BEACH          CLOUDY    66  63  88 N9        30.00R
CROSBY         FAIR      66  61  82 NW14      29.96R HAZE
HARVEY         FAIR      73  66  78 N9        29.82S
HAZEN          FAIR      72  63  73 N10       29.88R
LINTON         FAIR      72  68  88 E12       29.76F
MANDAN         FAIR      73  66  78 N13       29.84R
OAKES            N/A     81  75  83 W13       29.78S
STANLEY        FAIR      70  64  83 N17       29.93R HAZE
$$

CITY           SKY/WX    TMP DP  RH WIND       PRES   REMARKS
GRAND FORKS    TSTM      67  66  97 NE15      29.71F
GRAND FORKS AF LGT RAIN  66  65  96 E8        29.72F
DEVILS LAKE    PTSUNNY   70  63  78 N12       29.78R
FARGO          CLOUDY    83  69  62 W12       29.76R
CANDO          MOCLDY    73  66  78 N9        29.81R
CAVALIER       LGT RAIN  66  66 100 NE3       29.78R
GRAFTON        CLOUDY    66  66 100 NE8       29.75F FOG
GWINNER        FAIR      84  70  61 SW13      29.78S
LANGDON        CLOUDY    68  66  94 NE10      29.80R
ROLLA          MOCLDY    68  66  94 N16       29.86R
WALHALLA       FAIR      66  66 100 MISG      29.79R
$$

CITY           SKY/WX    TMP DP  RH WIND       PRES   REMARKS
ABERDEEN       SUNNY     86  72  62 SW10      29.77R HX  92
MOBRIDGE       CLOUDY    79  68  69 NE14      29.78F
BUFFALO          N/A     78  59  51 N14       29.85R
RAPID CITY     CLOUDY    79  63  57 NE16      29.88R
GLASGOW        CLOUDY    68  47  46 N18G26    30.04R
SIDNEY         SUNNY     73  54  49 NW16      29.97R
WOLF POINT     PTSUNNY   75  49  39 N20G29    30.00R
GLENDIVE       CLOUDY    66  52  59 N14       30.02R
MILES CITY     CLOUDY    66  51  58 N18       30.01F HAZE
BAKER          PTSUNNY   71  57  61 N24G30    29.97R
$$

CITY           SKY/WX    TMP DP  RH WIND       PRES   REMARKS
BILLINGS       CLOUDY    60  50  69 NE13      30.13R
GREAT FALLS    LGT RAIN  51  50  96 N13       30.17S FOG
REGINA         PTSUNNY   68  50  52 NW23G32   29.98R
ESTEVAN        CLOUDY    68  57  68 NW16      29.94R SMOKE
$$



USA.gov is the U.S. government's official web portal to all federal, state and local government web resources and services.